Home > Weather > Ganderkesee > Past weeks

Flag for Germany Weather for the Past 2 Weeks in Ganderkesee, Lower Saxony, Germany

Now
48 °F

Scattered clouds.


Feels Like: 42 °F
Forecast: 40 / 45 °F
Wind: 16 mph from Southwest

Location: Bremen Airport

Current Time: Feb 8, 2016 at 2:17:50 PM

Latest Report: Feb 8, 2016 at 1:50 PM


Visibility: N/A

Pressure: 29.12 "Hg

Humidity: 71%

Dew point: 39 °F

Location of GanderkeseeLocation

Historic Weather in Ganderkesee — Graph

°F

Ganderkesee Temperature Yesterday

Maximum temperature yesterday: 54 °F (at 12:20 PM)
Minimum temperature yesterday: 43 °F (at 10:50 PM)
Average temperature yesterday: 47 °F

High & Low Weather Summary for the Past Weeks

 TemperatureHumidityPressure
High54 °F (Jan 25, 2:50 PM)100% (Jan 24, 5:20 PM)30.36 "Hg (Jan 24, 5:20 PM)
Low32 °F (Feb 4, 10:50 PM)61% (Feb 3, 1:20 PM)29.15 "Hg (Feb 8, 9:20 AM)
Average45 °F84%29.89 "Hg
* Reported Jan 24 1:20 PM — Feb 8 1:20 PM, Ganderkesee, Weather by CustomWeather, © 2016

Note: Actual official high and low records may vary slightly from our data, if they occured in-between our weather recording intervals... More about our weather records

Advertising

Ganderkesee Weather History for the Previous 24 Hours

 ConditionsComfort  
Time TempWeatherWind HumidityBarometerVisibility
1:20 PM
Mon, Feb 8
46 °FScattered clouds.18 mph76%29.15 "HgN/A
12:50 PM46 °FPassing clouds.18 mph82%29.15 "HgN/A
12:20 PM48 °FSprinkles. Partly sunny.23 mph76%29.15 "HgN/A
11:50 AM50 °FPartly sunny.22 mph76%29.15 "HgN/A
11:20 AM48 °FPartly sunny.21 mph82%29.15 "HgN/A
10:50 AM48 °FPartly sunny.21 mph82%29.15 "HgN/A
10:20 AM48 °FBroken clouds.22 mph82%29.15 "HgN/A
9:50 AM46 °FBroken clouds.23 mph87%29.15 "HgN/A
9:20 AM46 °FPartly sunny.24 mph87%29.15 "HgN/A
8:50 AM46 °FLight rain. Partly sunny.24 mph82%29.18 "HgN/A
8:20 AM45 °FLight rain. Partly sunny.28 mph87%29.18 "HgN/A
7:50 AM45 °FLight rain. Passing clouds.24 mph87%29.21 "HgN/A
7:20 AM46 °FLight rain. Passing clouds.21 mph76%29.21 "HgN/A
6:50 AM45 °FLight rain. Passing clouds.21 mph81%29.21 "HgN/A
6:20 AM46 °FLight rain. Passing clouds.23 mph71%29.24 "HgN/A
5:50 AM46 °FPassing clouds.23 mph71%29.24 "HgN/A
5:20 AM46 °FPassing clouds.23 mph66%29.27 "HgN/A
4:20 AM45 °FPassing clouds.21 mph71%29.33 "HgN/A
3:50 AM45 °FLight rain. Passing clouds.18 mph71%29.33 "HgN/A
3:20 AM45 °FPassing clouds.20 mph66%29.36 "HgN/A
2:50 AM43 °FClear.20 mph71%29.39 "Hg10 mi
2:20 AM43 °FClear.20 mph71%29.42 "Hg10 mi
1:50 AM43 °FClear.20 mph71%29.42 "Hg10 mi
1:20 AM43 °FClear.17 mph71%29.45 "Hg10 mi
12:50 AM43 °FClear.18 mph71%29.47 "Hg10 mi
12:20 AM43 °FClear.15 mph71%29.47 "Hg10 mi
11:50 PM
Sun, Feb 7
43 °FClear.14 mph71%29.50 "Hg10 mi
11:20 PM43 °FClear.14 mph71%29.50 "Hg10 mi
10:50 PM43 °FClear.14 mph71%29.53 "Hg10 mi
10:20 PM45 °FClear.14 mph66%29.53 "Hg10 mi
9:50 PM45 °FClear.13 mph66%29.53 "Hg10 mi
9:20 PM45 °FClear.13 mph71%29.53 "Hg10 mi
8:50 PM45 °FClear.14 mph66%29.53 "Hg10 mi
8:20 PM45 °FPassing clouds.14 mph71%29.53 "HgN/A
7:50 PM46 °FPassing clouds.16 mph66%29.53 "HgN/A
7:20 PM46 °FPassing clouds.16 mph71%29.53 "HgN/A
6:50 PM46 °FPassing clouds.14 mph71%29.53 "HgN/A
6:20 PM46 °FPassing clouds.15 mph66%29.53 "HgN/A
5:50 PM48 °FPassing clouds.15 mph66%29.53 "HgN/A
5:20 PM48 °FPassing clouds.15 mph66%29.50 "HgN/A
4:20 PM48 °FBroken clouds.18 mph66%29.50 "HgN/A
3:50 PM50 °FBroken clouds.14 mph67%29.50 "HgN/A
3:20 PM50 °FPartly sunny.17 mph67%29.50 "HgN/A
2:50 PM50 °FBroken clouds.15 mph67%29.47 "HgN/A
2:20 PM50 °FBroken clouds.15 mph71%29.47 "HgN/A
Weather by CustomWeather, © 2016

See weather overviewHow to use our weather pages